Wind_Speed
2 2 2 3 3 4 5 5 6 7 7 8 8 8 8 9 8 8 8 8 9 9 9 10 10 10 10 10 9 9 8 9 8 8 8 8 7 7 6 6 5 5 5
1 1 2 2 3 4 5 6 6 7 8 8 8 8 9 9 9 9 9 9 9 10 10 10 10 10 10 10 9 9 8 8 8 8 8 8 8 8 7 7 6 6 5
1 1 1 2 3 4 5 6 6 7 8 8 8 9 9 9 9 9 10 10 10 10 10 11 11 11 10 10 9 9 9 8 9 8 8 8 8 8 8 7 7 6 6
1 1 1 2 2 4 5 6 6 7 8 8 9 9 10 10 10 10 10 11 11 11 11 11 11 11 11 10 10 9 9 9 9 9 9 9 8 8 8 8 7 7 6
1 1 0 1 3 4 5 6 6 7 8 8 9 9 10 10 11 11 11 11 11 11 11 11 11 11 11 10 10 10 9 9 9 9 9 8 9 8 8 8 8 7 6
2 1 0 1 3 4 5 6 6 7 8 9 9 10 10 11 11 11 11 11 11 11 11 11 11 11 11 10 10 10 9 9 9 9 8 8 8 8 8 8 8 7 7
1 1 0 2 3 4 5 6 7 7 8 9 10 10 11 11 11 11 11 11 11 11 11 11 11 11 11 11 10 10 9 9 9 9 9 8 9 9 8 8 8 8 7
2 1 1 2 4 5 6 6 7 7 8 9 10 10 11 11 12 11 11 11 11 11 11 11 11 11 11 10 10 10 9 9 9 9 9 9 9 9 9 9 9 9 9
2 1 2 3 4 4 5 6 7 7 8 9 10 10 10 11 11 11 11 11 11 11 11 11 11 11 11 10 9 9 8 8 9 9 9 9 9 10 10 10 9 9 9
2 2 3 3 4 5 6 6 7 8 8 9 9 10 10 11 11 10 10 11 11 11 11 11 11 11 10 10 9 9 9 8 8 9 9 9 10 10 10 11 11 10 9
2 3 4 4 4 5 6 7 7 8 8 9 9 10 11 11 10 10 10 11 11 11 11 11 11 11 10 9 9 9 9 9 9 8 9 9 10 11 10 11 12 11 10
2 3 3 4 4 5 6 7 7 8 8 9 10 10 11 11 11 11 11 11 11 11 11 11 11 11 10 10 9 9 9 9 9 9 9 9 10 11 11 12 12 12 11
2 3 3 4 5 5 6 6 7 8 8 9 10 10 11 11 11 11 11 11 12 12 12 12 12 11 11 10 10 9 9 9 9 10 10 10 10 11 12 13 13 13 12
3 3 4 5 5 6 6 6 7 7 8 9 9 10 11 11 11 11 12 12 12 12 12 12 12 12 11 10 9 9 8 8 9 9 10 10 11 11 12 13 14 14 13
4 4 5 5 5 6 6 6 6 7 8 8 9 11 11 12 12 12 12 12 12 12 12 12 12 11 11 10 9 8 7 7 8 9 10 10 11 11 11 12 14 14 15
4 5 5 5 6 6 6 6 7 7 8 8 9 10 11 11 12 12 12 13 13 13 13 13 12 11 11 10 9 8 7 6 7 8 9 10 10 11 11 12 14 15 15
4 4 5 5 5 6 6 6 6 7 7 8 9 10 10 11 12 12 13 13 13 13 13 13 12 12 11 10 9 8 7 6 7 8 9 10 10 11 12 13 14 15 16
4 4 4 5 5 5 6 6 6 6 7 8 8 9 10 11 12 12 13 14 13 13 13 13 13 12 11 10 9 8 7 6 5 7 9 10 11 11 11 13 14 15 17
4 4 4 4 4 5 5 6 6 6 7 8 8 9 10 11 12 12 13 14 14 14 14 13 13 12 11 10 10 9 8 6 5 6 8 9 10 11 11 13 14 15 16
4 4 4 4 4 5 5 5 6 6 7 7 8 9 10 11 12 13 13 14 14 14 14 13 13 12 11 11 10 9 9 7 4 5 7 9 10 11 11 13 14 15 16
5 4 4 4 4 4 5 5 5 6 7 7 8 9 10 11 12 12 13 14 14 14 14 14 13 13 12 12 11 10 9 7 5 4 6 8 10 11 12 13 14 15 16
4 4 4 4 4 4 5 5 5 6 7 8 9 10 11 12 12 12 13 14 15 15 15 14 14 13 13 12 11 11 10 8 6 4 5 7 9 10 12 13 14 15 16
5 4 4 4 4 4 4 4 5 6 7 7 9 10 11 12 12 13 13 14 15 15 15 15 15 14 14 13 12 11 11 9 7 5 4 6 8 10 12 13 14 16 16
5 5 4 4 4 4 4 4 4 5 6 7 8 10 10 11 12 13 13 14 15 16 16 16 16 15 15 14 13 12 11 10 9 7 6 5 7 10 11 13 14 16 16
5 5 4 4 3 4 4 4 4 5 6 7 8 9 10 11 13 13 13 14 15 16 16 17 17 16 15 15 14 13 12 11 10 8 7 6 7 9 11 13 14 16 16
5 5 4 4 4 4 4 4 4 5 6 7 8 9 11 11 12 13 13 14 15 16 16 17 17 16 16 16 15 13 12 12 11 10 8 7 7 8 11 13 14 15 17
Wind_Direction
46 36 28 17 15 11 7 2 358 354 353 351 348 348 346 342 339 336 334 330 327 324 322 319 314 309 305 301 295 292 286 282 277 271 267 264 263 260 255 250 247 248 247
41 43 34 14 13 8 1 356 353 353 350 347 346 345 344 341 338 337 333 329 325 323 322 319 315 311 306 304 298 292 287 280 277 274 266 262 258 256 254 249 248 247 247
79 71 41 10 6 360 356 354 350 348 346 345 344 341 339 337 335 334 331 328 324 321 319 316 313 311 307 302 298 292 287 281 276 275 267 261 257 251 251 248 246 246 244
136 121 15 0 356 351 349 347 344 345 345 343 340 338 336 335 333 331 329 327 325 320 316 313 312 310 307 302 296 293 288 283 276 271 267 259 254 248 246 244 243 242 239
129 151 332 349 344 344 342 343 341 340 339 338 338 337 335 333 332 330 327 325 323 322 318 313 309 308 307 303 296 291 288 284 275 270 266 257 250 245 241 238 237 235 234
131 144 22 338 331 335 338 339 338 337 336 337 337 336 333 330 330 329 327 326 325 324 322 318 312 308 305 303 298 293 287 281 277 270 265 258 248 242 236 234 231 229 229
156 150 329 331 332 332 332 332 334 335 335 335 335 334 331 331 331 332 331 329 327 325 322 320 314 309 305 301 298 293 287 279 275 268 261 256 248 239 232 230 228 225 223
198 232 296 319 325 330 328 330 332 334 334 335 335 333 333 333 331 333 333 330 329 326 322 319 316 313 307 301 297 291 284 277 272 265 259 254 243 234 229 228 226 221 217
217 255 294 313 321 327 329 331 332 335 337 338 337 336 334 332 330 330 332 332 331 329 327 322 318 315 310 304 297 289 281 277 271 263 258 251 240 233 227 225 223 218 214
234 275 297 313 318 324 329 331 333 338 340 341 339 338 337 335 333 331 331 333 332 331 329 327 322 315 312 307 299 289 278 276 270 261 255 247 238 231 226 224 220 218 213
257 281 292 306 315 322 325 328 332 336 338 339 340 340 340 339 337 336 335 335 334 333 331 328 324 320 314 309 300 288 277 272 266 262 252 244 236 228 223 221 218 215 215
265 283 295 303 311 321 325 326 330 333 335 339 341 343 343 342 341 342 341 339 337 335 332 329 326 323 318 311 303 291 278 269 261 257 249 240 232 224 220 219 215 211 210
265 290 296 305 312 321 325 326 328 331 335 339 343 346 346 346 347 346 344 342 341 339 336 332 328 325 321 315 307 296 282 270 259 251 245 237 229 223 221 218 216 209 207
282 289 290 300 312 319 323 324 326 330 335 340 345 348 348 348 348 346 345 344 343 343 340 336 331 329 325 321 314 301 286 272 258 248 243 235 228 223 222 219 213 209 206
278 284 288 293 303 310 317 322 325 329 337 342 345 347 348 348 347 346 345 345 344 344 343 340 337 336 334 329 324 312 294 276 258 248 241 234 228 224 221 216 209 207 205
269 280 285 291 296 303 311 318 323 328 336 341 343 346 348 348 347 346 346 346 346 345 345 344 342 342 341 338 331 324 307 282 260 246 237 231 226 223 221 215 207 205 205
270 277 281 289 295 302 310 316 321 328 334 339 342 344 346 347 347 348 349 349 348 347 347 346 346 346 345 342 338 330 316 296 266 245 234 230 226 225 222 216 211 206 206
275 283 288 294 301 309 316 319 320 325 331 335 338 342 344 345 347 350 352 352 350 349 349 348 348 349 349 347 345 341 329 306 271 245 234 228 225 223 221 217 214 210 208
273 284 292 298 305 314 322 324 321 323 328 334 337 341 345 347 348 351 351 352 353 353 352 352 352 352 351 349 347 346 341 323 284 249 235 230 225 223 222 217 215 214 211
273 282 289 298 309 317 319 320 321 324 329 335 337 343 350 350 350 353 354 354 354 355 355 356 356 356 355 353 351 350 347 336 297 258 241 233 227 225 223 219 216 216 215
272 277 287 302 310 312 315 321 326 331 337 341 344 344 347 351 353 355 357 356 356 356 357 358 358 357 356 354 353 352 351 345 325 278 251 238 231 228 225 223 223 221 218
269 276 286 297 303 302 305 316 326 333 341 345 347 348 349 351 353 356 359 359 359 359 359 360 359 358 356 353 352 351 350 347 338 306 267 246 235 230 227 226 226 223 220
266 274 283 292 299 299 300 310 324 331 336 340 345 349 352 353 355 357 358 359 0 0 0 359 357 356 354 351 348 347 347 347 341 325 290 260 242 234 230 227 226 223 222
269 275 281 290 295 295 298 305 319 329 334 340 346 351 352 354 355 357 359 359 0 1 1 360 358 356 354 352 348 344 342 340 339 329 304 274 251 239 234 231 226 223 224
268 271 276 282 288 293 298 307 317 326 333 340 347 350 349 349 352 355 356 357 358 359 359 358 357 355 353 352 350 346 342 340 336 328 313 292 267 246 239 237 231 226 226
263 265 270 278 285 290 297 310 317 325 334 339 344 347 349 346 348 350 351 351 352 352 353 354 354 353 351 350 349 345 341 339 333 324 312 300 280 259 248 242 236 233 232
Height
5880 5880 5880 5880 5880 5879 5878 5878 5877 5876 5875 5874 5874 5873 5872 5872 5871 5870 5870 5869 5868 5867 5867 5866 5866 5866 5865 5865 5865 5865 5866 5866 5867 5868 5868 5869 5870 5871 5872 5873 5873 5874 5875
5880 5880 5880 5880 5880 5879 5878 5878 5877 5876 5875 5874 5873 5873 5872 5871 5870 5870 5869 5868 5867 5866 5866 5865 5864 5864 5864 5864 5864 5864 5864 5865 5865 5866 5867 5868 5869 5870 5871 5872 5872 5873 5873
5880 5880 5880 5880 5879 5879 5878 5878 5877 5876 5875 5874 5873 5872 5871 5870 5870 5869 5868 5867 5866 5865 5864 5864 5863 5863 5862 5862 5862 5862 5862 5863 5863 5864 5865 5866 5867 5868 5869 5870 5871 5872 5872
5880 5880 5880 5880 5879 5879 5878 5877 5876 5875 5875 5874 5872 5872 5871 5870 5869 5868 5867 5866 5865 5864 5863 5862 5862 5861 5861 5860 5860 5861 5861 5861 5861 5862 5863 5864 5865 5866 5867 5869 5869 5870 5871
5880 5880 5880 5879 5879 5878 5878 5877 5876 5875 5874 5873 5872 5871 5870 5869 5868 5867 5866 5865 5864 5863 5862 5861 5860 5860 5859 5859 5859 5859 5859 5859 5859 5860 5861 5862 5863 5864 5866 5867 5868 5869 5870
5880 5880 5880 5879 5879 5878 5877 5877 5876 5875 5874 5873 5872 5870 5869 5868 5867 5866 5865 5864 5862 5861 5860 5859 5859 5858 5858 5857 5857 5857 5857 5857 5857 5858 5859 5860 5861 5863 5864 5865 5866 5867 5868
5880 5880 5879 5879 5878 5878 5877 5876 5875 5874 5873 5872 5871 5870 5868 5867 5866 5865 5864 5862 5861 5860 5859 5858 5857 5856 5856 5855 5855 5855 5855 5855 5855 5856 5857 5858 5859 5861 5862 5864 5865 5866 5867
5879 5879 5879 5879 5878 5877 5877 5876 5875 5874 5873 5871 5870 5869 5867 5866 5865 5864 5863 5861 5860 5858 5857 5856 5855 5854 5854 5853 5853 5853 5853 5853 5853 5854 5855 5856 5857 5859 5860 5862 5863 5864 5865
5879 5879 5879 5878 5878 5877 5876 5875 5874 5873 5872 5871 5870 5868 5867 5866 5864 5863 5862 5860 5859 5857 5856 5854 5853 5852 5852 5851 5851 5850 5850 5851 5851 5852 5853 5854 5855 5857 5858 5860 5862 5863 5864
5879 5878 5878 5878 5878 5877 5876 5875 5874 5873 5872 5870 5869 5868 5866 5865 5863 5862 5860 5859 5857 5856 5854 5853 5852 5851 5850 5849 5849 5848 5848 5848 5849 5850 5851 5852 5853 5855 5856 5858 5860 5861 5863
5878 5878 5878 5877 5877 5876 5875 5875 5874 5873 5871 5870 5869 5867 5866 5864 5863 5861 5859 5858 5856 5854 5853 5851 5850 5849 5848 5847 5846 5846 5846 5846 5847 5847 5848 5849 5851 5852 5854 5856 5858 5860 5862
5877 5877 5877 5877 5877 5876 5875 5874 5873 5872 5871 5870 5868 5867 5865 5864 5862 5860 5858 5856 5855 5853 5852 5850 5849 5847 5846 5845 5844 5843 5843 5844 5844 5845 5846 5847 5848 5850 5852 5854 5856 5858 5860
5877 5877 5877 5876 5876 5875 5875 5874 5873 5872 5871 5869 5868 5866 5865 5863 5861 5859 5857 5856 5854 5852 5850 5848 5847 5845 5844 5843 5842 5841 5841 5841 5842 5842 5843 5845 5846 5848 5850 5852 5854 5857 5859
5876 5876 5876 5876 5875 5875 5874 5873 5873 5872 5870 5869 5867 5866 5864 5862 5861 5859 5857 5855 5853 5851 5849 5847 5845 5843 5842 5841 5839 5839 5838 5839 5839 5840 5841 5842 5844 5846 5848 5850 5852 5855 5857
5875 5875 5875 5875 5875 5874 5874 5873 5872 5871 5870 5868 5867 5865 5864 5862 5860 5858 5856 5854 5852 5850 5848 5845 5843 5842 5840 5838 5837 5836 5836 5836 5837 5837 5838 5840 5842 5844 5846 5848 5850 5853 5855
5875 5875 5875 5874 5874 5873 5873 5872 5871 5870 5869 5868 5866 5865 5863 5862 5860 5858 5856 5853 5851 5849 5846 5844 5842 5840 5838 5837 5836 5835 5834 5834 5835 5835 5836 5838 5840 5842 5844 5846 5848 5851 5854
5874 5874 5874 5873 5873 5873 5872 5871 5871 5870 5869 5867 5866 5864 5863 5861 5859 5857 5855 5852 5850 5848 5845 5843 5841 5839 5837 5836 5834 5833 5832 5832 5832 5833 5834 5836 5838 5840 5842 5844 5846 5849 5852
5873 5873 5873 5872 5872 5872 5871 5871 5870 5869 5868 5867 5865 5864 5862 5860 5858 5856 5854 5852 5849 5847 5844 5842 5840 5838 5836 5835 5833 5832 5831 5830 5830 5831 5833 5834 5836 5838 5840 5842 5844 5847 5850
5872 5872 5872 5871 5871 5871 5870 5870 5869 5868 5868 5866 5865 5863 5861 5860 5858 5856 5853 5851 5849 5846 5844 5841 5839 5837 5835 5834 5832 5831 5830 5829 5829 5830 5831 5832 5834 5836 5838 5840 5842 5845 5848
5871 5871 5871 5870 5870 5870 5869 5869 5868 5868 5867 5865 5864 5862 5861 5859 5857 5855 5853 5851 5848 5846 5843 5841 5838 5836 5835 5833 5832 5830 5829 5828 5828 5828 5829 5831 5832 5834 5836 5838 5841 5843 5846
5870 5870 5870 5869 5869 5869 5868 5868 5867 5867 5866 5865 5863 5861 5860 5858 5857 5854 5852 5850 5848 5845 5843 5840 5838 5836 5834 5833 5831 5830 5829 5827 5827 5827 5828 5829 5831 5833 5834 5837 5839 5841 5844
5869 5869 5868 5868 5868 5867 5867 5867 5866 5866 5865 5864 5862 5861 5859 5858 5856 5854 5852 5850 5847 5845 5842 5840 5838 5836 5834 5832 5831 5829 5828 5828 5826 5826 5827 5827 5829 5831 5833 5835 5837 5839 5841
5867 5867 5867 5866 5866 5866 5865 5865 5865 5865 5864 5863 5862 5860 5859 5857 5855 5853 5851 5849 5847 5845 5842 5840 5838 5836 5834 5832 5830 5829 5828 5827 5826 5826 5826 5826 5827 5829 5831 5832 5835 5837 5839
5865 5865 5865 5865 5864 5864 5864 5864 5864 5864 5863 5862 5861 5859 5858 5857 5855 5853 5851 5849 5847 5845 5842 5840 5838 5835 5833 5831 5830 5828 5827 5826 5825 5825 5825 5825 5826 5827 5828 5830 5832 5834 5837
5864 5863 5863 5863 5863 5862 5862 5862 5863 5863 5862 5861 5860 5859 5858 5856 5855 5853 5851 5849 5847 5845 5842 5840 5837 5835 5833 5831 5829 5828 5826 5825 5824 5824 5824 5824 5824 5825 5826 5828 5829 5832 5834
5862 5862 5861 5861 5861 5861 5861 5861 5861 5862 5861 5860 5859 5858 5857 5856 5854 5853 5851 5849 5847 5844 5842 5839 5837 5835 5832 5830 5828 5827 5825 5824 5823 5823 5822 5822 5823 5823 5824 5825 5827 5829 5831